GOES 1

operational
NORAD ID: 8366 Int'l Des: 1975-100 Owner: NOAA Country: US
HEOCIRCULARGSO

GOES 1について

説明を読み込み中...

リアルタイム位置

3D地球を読み込み中...

次回通過

高度履歴

Altitude vs Time

uPlot chart will show altitude changes over time

軌道要素

1 8366U 75100A 26063.13312757 -.00000003 00000-0 00000+0 0 9995
2 8366 4.8753 278.7534 0005420 359.8228 170.6193 1.00237378184018
Epoch: Mar 4, 2026 • Age: 18 hours

現在のステータス

高度 35775.1 km
速度 3.08 km/s
衛星直下点 2.21°N, 120.72°W
タイプ weather

大規模コンステレーション

Loading constellations...